Regional Weather Roundup
Issued by NWS Midland/Odessa, TX

Skip options and go directly to product.
Home | Oldest Version | Previous Version | Current Version | All | Graphics & Text | Save Text | Print | Product List | Glossary On

Skip product version selection by date and time.   
435
ASUS44 KMAF 302010
RWRMAF
MIDLAND AREA WEATHER ROUNDUP
NATIONAL WEATHER SERVICE MIDLAND TX
300 PM CDT THU JUL 30 2015

...IN SOUTHWEST TEXAS AND SOUTHEAST NEW MEXICO...

CITY           SKY/WX    TMP DP  RH WIND       PRES   REMARKS
ALPINE         MOSUNNY   88  53  29 E3        30.31F
ANDREWS        PTSUNNY   93  54  27 E5        30.19F
ARTESIA        SUNNY     90  61  37 VRB7G18   30.21F
BIG SPRING     SUNNY     95  58  28 E9        30.17F
CARLSBAD       SUNNY     94  57  28 E8        30.17F
DRYDEN           N/A     98  54  22 SE7       30.10F
FORT STOCKTON  MOSUNNY   94  52  24 E14G22    30.16F
GUAD PASS      SUNNY     82  57  42 NE22      30.34F
HOBBS          PTSUNNY   91  57  31 E9G18     30.23F
MARFA          SUNNY     88  55  33 E12G17    30.29F
MIDLAND AIRPK  MOSUNNY   97  53  22 E8        30.17F
MIDLAND INTL   MOSUNNY   98  56  24 SE13      30.16F
ODESSA         MOSUNNY   98  52  21 E10       30.17F
PECOS          SUNNY     98  53  21 SE12      30.12F
PRESIDIO       FAIR      96  56  26 E9        30.10F
SEMINOLE       PTSUNNY   92  54  27 E8        30.22F
SNYDER         MOSUNNY   94  60  32 E6        30.16F
WINK           MOSUNNY  100  54  21 E13G21    30.13F
$$
...OTHER STATIONS IN TEXAS...

CITY           SKY/WX    TMP DP  RH WIND       PRES   REMARKS
ABILENE        MOSUNNY   98  62  30 E7        30.12F
AMARILLO       PTSUNNY   82  67  60 NE15      30.28F
AUSTIN         MOSUNNY   99  60  27 N6        30.05F
BROWNSVILLE    MOSUNNY   94  75  54 E12G21    30.03S HX 105
CORPUS CHRISTI MOSUNNY   97  68  38 E12       30.04F HX 102
DALLAS FTW     MOSUNNY   99  62  29 E5        30.05F HX 100
DEL RIO        SUNNY    100  52  19 E9        30.04F
EL PASO        MOSUNNY   84  60  44 SW3       30.22F
HOUSTON INT    PTSUNNY   98  70  40 E3        30.01F HX 105
LUBBOCK        PTSUNNY   91  63  39 NE10      30.22F
SAN ANGELO     MOSUNNY   98  59  27 NE12G22   30.11F
SAN ANTONIO    MOSUNNY   97  63  32 S9        30.08F
WACO           MOSUNNY  101  63  28 E12       30.05F HX 103
WICHITA FALLS  NOT AVBL
$$
...OTHER LOCATIONS IN NEW MEXICO...

CITY           SKY/WX    TMP DP  RH WIND       PRES   REMARKS
ALAMAGORDO     MOSUNNY   82  61  47 W9        30.26F
ALBUQUERQUE    PTSUNNY   78  56  46 NE5       30.36F
CANNON AFB     PTSUNNY   83  62  49 NE8       30.30F
CLOVIS         PTSUNNY   84  63  48 NE6       30.32F
HOLLOMAN AFB   NOT AVBL
ROSWELL        SUNNY     91  60  35 MISG      30.21F
RUIDOSO          N/A    N/A N/A N/A MISG        N/A
SANTA FE       CLOUDY    72  55  55 NE5       30.43F
TRUTH OR CONSE MOSUNNY   79  61  53 N5        30.29F
TUCUMCARI      PTSUNNY   82  62  50 VRB3      30.30F
$$

USA.gov is the U.S. government's official web portal to all federal, state and local government web resources and services.